SMOS

Last updated on Thu Oct 30 2025 00:02:31 GMT+0000 (Coordinated Universal Time)

1 36036U 09059A 25302.53162137 .00000498 00000+0 17292-3 0 9995 2 36036 98.4410 128.2281 0001338 87.2064 272.9278 14.39744234840260
UTC large
Height (km)
Speed (km/s)
/
Latitude / Longitude
Inclination (degrees)
Orbital Period (minutes)
Azimuth
Elevation
Range (km)
Doppler Factor

Next 0 passes for location: London (51.5072 / 0.1276)

Sorry there are no passes over London.